Location: *
(43.2500°N, 0.1667°W)
Time: 22:34:21
(UTC+00:00)

Daily predictions for brighter satellites

Satellite Brightness Start Highest point End
(mag) Time Altitude Azimuth Time Altitude Azimuth Time Altitude Azimuth
Cosmos 968 Rocket 4.2 18:17:38 10° SSW 18:22:49 60° WNW 18:28:03 10° NNE
Cosmos 1674 4.1 18:21:51 10° NNE 18:24:32 19° ENE 18:27:13 10° ESE
Cosmos 1674 Rocket 3.6 18:20:14 10° N 18:24:32 57° E 18:28:46 10° SSE
SJ 16-02 2.9 18:22:58 10° SE 18:25:27 15° E 18:27:57 10° ENE
Cosmos 2184 Rocket 4.2 18:21:30 10° SSE 18:27:36 52° E 18:33:42 10° NNE
CZ-4C R/B 3.5 18:24:10 10° N 18:27:45 70° WNW 18:31:19 10° SSW
Lacrosse 4 Rocket 4.2 18:27:58 10° W 18:30:19 15° NW 18:32:42 10° N
HJ-1C 3.9 18:27:27 10° SE 18:30:29 36° ENE 18:33:31 10° N
Meteor 1-21 4.2 18:25:29 10° N 18:31:10 76° E 18:36:45 10° SSE
Cosmos 1707 2.9 18:28:13 10° N 18:32:04 52° E 18:35:52 10° SSE
CZ-4B R/B 4.1 18:27:33 10° S 18:32:52 54° W 18:38:19 10° NNW
COSMO-SKYMED 1 3.3 18:29:12 10° N 18:33:29 59° WNW 18:37:44 10° SSW
Cosmos 1626 3.6 18:38:29 10° NNE 18:41:08 18° ENE 18:43:02 13° ESE
OBJECT-B 2.5 18:43:09 14° E 18:43:58 15° ENE 18:45:54 10° NNE
KORONAS-FOTON 4.5 18:40:39 10° N 18:44:04 32° ENE 18:47:29 10° SE
Cosmos 1733 Rocket 4.2 18:42:18 10° SSW 18:46:28 48° WNW 18:50:40 10° N
Cosmos 2154 Rocket 4.2 18:40:50 10° SSE 18:46:55 51° E 18:53:02 10° NNE
Cosmos 1503 Rocket 4.0 18:42:58 10° SSW 18:48:11 88° ESE 18:53:24 10° NNE
Cosmos 1340 3.0 18:44:51 10° NNW 18:48:37 68° W 18:52:20 10° S
MetOp-A 4.5 18:44:33 10° SE 18:49:36 45° ENE 18:54:41 10° N
In-Cosmos 22 4.0 18:44:26 10° N 18:49:45 75° E 18:55:02 10° SSE
Atlas Centaur 2 4.1 18:42:54 10° SW 18:49:56 31° S 18:56:04 13° ESE
Geosat 4.0 18:45:10 10° NNE 18:50:10 65° ESE 18:55:09 10° SSW
Cosmos 1733 4.4 18:49:08 10° SE 18:52:04 22° E 18:55:02 10° NE
Cosmos 1184 Rocket 4.2 18:50:17 10° NNE 18:52:38 19° ENE 18:53:05 18° E
SL-08 RB Rocket 3.7 18:48:27 10° SSE 18:52:54 84° WSW 18:57:25 10° NNW
H-2A R/B 1.9 18:49:58 10° NNE 18:54:12 82° ESE 18:58:18 10° SSW
Cosmos 1782 Rocket 4.0 18:51:41 10° SSE 18:55:49 39° E 18:59:57 10° NNE
Cosmos 1777 Rocket 4.2 18:53:08 10° S 18:58:08 47° ESE 19:03:09 10° NNE
Nadezhda 3 Rocket 4.0 18:56:24 10° N 19:02:30 61° E 19:08:35 10° SSE
ISS -1.6 19:00:10 10° WNW 19:02:50 21° N 19:05:30 10° NE
PSLV R/B 4.4 18:59:20 10° NNE 19:03:12 38° E 19:07:02 10° SSE
CSL-04 Rocket 3.8 18:58:56 10° SSE 19:04:08 55° ENE 19:09:27 10° N
COSMOS 2455 3.0 18:58:34 10° NNW 19:04:37 77° WSW 19:10:38 10° SSE
Cosmos 1354 Rocket 4.1 18:59:33 10° SSW 19:04:48 79° WNW 19:10:05 10° NNE
Cosmos 1346 Rocket 3.2 19:02:05 10° N 19:05:57 43° ENE 19:08:39 18° SE
Cosmos 1025 Rocket 3.9 19:09:17 10° NNE 19:13:02 27° ENE 19:13:46 26° E
H-2A R/B 4.4 19:10:44 10° SSW 19:14:48 35° W 19:18:56 10° NNW
Okean-O 2.6 19:12:26 10° SSE 19:16:52 84° WSW 19:21:20 10° NNW
Cosmos 1238 Rocket 4.1 19:11:39 10° SSW 19:18:02 76° W 19:23:41 10° N
SeaSat 1 2.8 19:22:15 28° ESE 19:24:23 46° ENE 19:29:06 10° NNW
Cosmos 1975 Rocket 3.0 19:20:41 10° N 19:25:05 62° E 19:27:53 22° SSE
Cosmos 773 Rocket 4.1 19:24:12 10° NNW 19:29:28 78° WSW 19:34:22 12° SSE
Cosmos 1300 Rocket 3.8 19:29:52 36° SE 19:30:56 42° E 19:35:04 10° NNE
ATLAS CENTAUR R/B 2.5 19:26:43 10° NW 19:31:16 50° WSW 19:35:12 14° S
Resurs 01 Rocket 3.3 19:33:40 18° NE 19:33:40 18° NE 19:35:55 10° NNE
Cosmos 1943 Rocket 3.5 19:31:12 10° SW 19:36:25 40° WNW 19:41:42 10° NNE
BREEZE-M DEB (TANK) 3.4 19:34:54 10° W 19:36:21 27° SW 19:36:21 27° SW
Cosmos 2341 Rocket 4.0 19:30:38 10° S 19:36:50 62° E 19:43:08 10° NNE
Meteor 1-24 Rocket 4.3 19:32:55 10° N 19:37:47 34° ENE 19:38:11 33° E
CZ-4B R/B 2.4 19:34:58 10° N 19:37:54 43° WNW 19:40:53 10° SW
Cosmos 2366 rocket 4.3 19:35:45 27° SE 19:38:22 41° E 19:44:03 10° NNE
Lacrosse 5 rocket 1.7 19:33:58 10° NW 19:38:28 66° SW 19:40:04 37° SSE
USA 186 1.7 19:39:12 68° N 19:39:12 68° N 19:41:57 10° N
Resurs 1-3 4.1 19:39:52 39° ENE 19:39:52 39° ENE 19:43:54 10° N
USA 276 3.9 19:39:36 10° NW 19:42:10 22° N 19:42:32 22° N
Cosmos 1833 4.2 19:40:49 10° NNW 19:46:24 60° ENE 19:47:57 44° ESE
CZ-4 R/B 4.0 19:44:55 10° SW 19:47:40 19° W 19:50:25 10° NW
Cosmos 2218 Rocket 4.1 19:45:03 28° SSE 19:48:03 50° E 19:54:00 10° NNE
Cosmos 1315 Rocket 2.7 19:44:28 10° S 19:48:26 87° W 19:52:28 10° N
Cosmos 2369 Rocket 2.5 19:42:56 10° SW 19:48:34 66° WNW 19:54:12 10° NNE
APEX 3.8 19:46:13 10° NNW 19:50:35 46° NE 19:50:35 46° NE
SJ-6B 2.9 19:53:28 56° S 19:54:19 83° WSW 19:58:27 10° NNW
MOS 1 4.3 19:54:16 47° ESE 19:55:33 58° ENE 20:01:08 10° N
USA 215 3.2 19:52:49 36° SE 19:55:47 85° SW 20:02:24 10° NW
Ariane Rocket 3.2 19:56:38 48° ENE 19:56:40 48° ENE 20:01:33 10° N
SL-14 R/B 3.2 19:53:25 10° N 19:57:12 79° N 19:57:12 79° N
Cosmos 1805 4.2 19:55:10 10° SSW 19:58:55 47° WNW 20:02:41 10° N
IRS-1A Rocket 4.4 19:59:04 49° ESE 20:00:20 61° ENE 20:06:10 10° N
EO 1 Delta rocket 3.8 20:02:46 65° SE 20:03:20 73° ENE 20:08:45 10° N
SJ 16-02 2.1 19:59:14 10° SW 20:03:32 52° WNW 20:07:53 10° N
CENTAUR R/B 3.4 19:58:17 10° S 20:09:37 12° NE 20:10:05 10° NE
Cosmos 1959 Rocket 4.4 20:01:18 30° SSE 20:04:34 66° E 20:10:49 10° NNE
Cosmos 864 Rocket 4.4 20:03:57 36° SSE 20:06:33 67° E 20:12:42 10° NNE
Cosmos 1538 Rocket 4.2 20:05:46 10° NNW 20:11:07 70° WSW 20:12:38 46° S
Meteor 1-15 Rocket 4.5 20:07:50 10° SSW 20:13:21 67° WNW 20:18:56 10° N
Helios 1A Rocket 3.4 20:14:54 56° NNW 20:14:54 56° NNW 20:18:10 10° NNW
OBJECT-B 2.9 20:16:03 26° W 20:16:03 26° W 20:18:34 10° NW
Cosmos 1626 4.1 20:13:09 10° NNW 20:16:21 28° W 20:17:33 23° WSW
Cosmos 1656 Rocket 4.2 20:11:02 10° SW 20:16:31 56° WNW 20:21:57 10° NNE
Okean 2 Rocket 4.0 20:18:26 39° N 20:18:26 39° N 20:21:14 10° N
USA 238 DEB 4.2 20:14:33 10° SSW 20:27:40 - NE 20:18:26 37° S
USA 238 4.3 20:14:41 10° SSW 20:27:53 - NE 20:18:17 35° S
Meteor 1-22 Rocket 4.1 20:25:16 64° SSW 20:26:12 86° WNW 20:32:01 10° N
Cosmos 158 Rocket 4.2 20:22:20 10° NNW 20:27:15 59° WSW 20:27:29 58° WSW
Sich 1 Rocket 4.5 20:25:53 33° SW 20:27:31 49° WNW 20:31:55 10° N
NOSS 3-2 (A) 3.2 20:24:58 10° SW 20:30:28 86° NW 20:36:50 10° NE
SPOT 3 Rocket 4.4 20:32:06 39° NNE 20:32:06 39° NNE 20:35:32 10° N
Meteor 2-5 Rocket 3.8 20:25:15 10° NNW 20:30:47 71° W 20:31:28 63° SW
Atlas Centaur 2 3.9 20:31:33 10° WSW 20:38:39 32° S 20:38:39 32° S
ISS -0.6 20:37:45 10° NW 20:38:31 14° NNW 20:38:31 14° NNW
Terra 4.4 20:46:31 10° NNE 20:46:31 10° NNE 20:46:38 10° NNE
BREEZE-M R/B 4.2 20:47:20 10° WNW 20:49:18 32° NW 20:49:18 32° NW
NOSS 3-3 (A) 4.4 20:47:38 10° NW 20:55:17 89° NE 20:55:49 80° SE
NOSS 3-3 (C) 4.4 20:47:44 10° NW 20:55:23 88° ENE 20:55:54 81° SE
Cosmos 1727 Rocket 4.1 20:52:42 10° N 20:58:28 70° NW 20:58:28 70° NW
SeaSat 1 4.2 21:02:02 25° WSW 21:02:02 25° WSW 21:06:07 10° NW
Resurs 01 Rocket 3.8 21:11:15 23° NW 21:11:15 23° NW 21:13:08 10° NNW
USA 281 3.5 21:06:24 10° NNE 21:11:50 60° N 21:11:50 60° N
Cosmos 2297 Rocket 3.9 21:07:50 10° N 21:10:29 25° N 21:10:29 25° N
Cosmos 2227 Rocket 4.2 21:30:07 10° NNW 21:32:18 22° N 21:32:18 22° N
CENTAUR R/B 4.1 21:56:39 31° N 21:56:39 31° N 22:01:08 10° NNE
